DECAYED
Showing default

FLOCK 4BE 4, 60482 (Decayed)

Orbit data source: Space-Track

FLOCK 4BE 4, 60482 was a payload satellite owned by Planet (US) in LEO that was launched on Fri, 16 Aug 2024 UTC via an FALCON 9 launch vehicle from the Air Force Western Test Range (AFWTR). Payload-class satellites include a variety of spacecraft equipped with specific instruments for various scientific and technological missions. These include communications satellites like Starlink; space stations such as the ISS; scientific satellites like the Hubble; Earth observation satellites from companies like Planet Labs, Umbra, and HawkEye 360; GPS; miniature CubeSats for education and research; and military/defense satellites.

Not visible in the next 10 days
Identifier
60482, 2024-149Q
Orbit
Decayed
Country
Flag of USUS
Related business
Manufacturer
Planet
Mission
Decayed Commercial Imaging
Bus & Motor
CUBESAT 3U, Unknown motor
Mass
5.7 kg wet, 5.7 kg dry
Launch date (UTC)
2024-08-16 (2 years ago)
Launch vehicle
FALCON 9
Launch site
Air Force Western Test Range (AFWTR)
Object type
Payload
Rocket body
Debris
Shape & HBR
Box + 2 Pan, 1.0 m
Radar Cross Section
0.072 m², Medium (>0.1 m² and < 1m²)

Expand to show TLE details & history
Last TLE update: 7 months ago

TLE from 7 months ago
0 FLOCK 4BE 4
1 60482U 24149Q   25322.37674503  .07014755  24609-5  17463-2 0  9997
2 60482  97.3722  53.7154 0010961 281.9790  78.0275 16.28980800 70806
Epoch: 2025-11-18T09:02Z
TLE epoch observation values (Epoch: 2025-11-18T09:02:30.770Z)
Latitude
-0°
Longitude
-139.57652°
Altitude
197.03 km
Speed
7.789 km/s
True Right ascension
03h 34m 51s
True Declination
0° 00' 00"
Sunlit
Object was in full shadow at epoch
Visualization orbit readout
Latitude
Unknown
Longitude
Unknown
Altitude
Unknown
Speed
Unknown
Apparent Right ascension
Unknown
Apparent Declination
Unknown
Sunlit
N/A
Visualization observer readout
Local Sidereal Time
07:19:31
Azimuth
Unknown
Elevation
Unknown
Doppler factor
Unknown
Orbital elements
Apogee altitude
199.303 km
Perigee altitude
184.899 km
Semi-major axis
6,570.238 km
Eccentricity
0.0011
Inclination
97.3722°
RAAN
53.7154°
Arg. of periapsis
281.979°
True anomaly
78.15041°
Mean anomaly
78.0275°
Eccentric anomaly
78.08895°
Mean motion
4.07541 °/min
Orbital period
88.33 mins
BSTAR
0.0017463
Loading maneuver chart data...
Computing Atmospheric mass density...
Loading historical data...
Loading historical data...
Loading historical data...
Loading historical data...
Loading historical data...
Loading historical data...
Loading historical data...

Documentation

Showing up to 5 results
|